Time,TemperatureF,DewpointF,PressureIn,WindDirection,WindDirectionDegrees,WindSpeedMPH,WindSpeedGustMPH,Humidity,HourlyPrecipIn,Conditions,Clouds,dailyrainin,SolarRadiationWatts/m^2,SoftwareType,DateUTC
2013-02-11 00:01:00,70.0,60.0,-100.00,WNW,287,5.0,16.0,71,0.00,,,0.05,0.000000,,2013-02-11 10:01:00,
2013-02-11 00:11:00,70.0,60.0,-100.00,WNW,287,5.0,16.0,71,0.00,,,0.05,0.000000,,2013-02-11 10:11:00,
2013-02-11 00:21:00,70.0,60.0,-100.00,WNW,287,5.0,16.0,71,0.00,,,0.05,0.000000,,2013-02-11 10:21:00,
2013-02-11 00:31:00,70.0,60.0,-100.00,WNW,287,5.0,16.0,71,0.00,,,0.05,0.000000,,2013-02-11 10:31:00,
2013-02-11 01:01:00,69.0,60.0,-100.00,North,0,4.0,18.0,73,0.00,,,0.05,0.000000,,2013-02-11 11:01:00,
2013-02-11 01:11:00,69.0,60.0,-100.00,North,0,4.0,18.0,73,0.00,,,0.05,0.000000,,2013-02-11 11:11:00,
2013-02-11 01:22:00,69.0,60.0,-100.00,North,0,4.0,18.0,73,0.00,,,0.05,0.000000,,2013-02-11 11:22:00,
2013-02-11 01:32:00,69.0,60.0,-100.00,North,0,4.0,18.0,73,0.00,,,0.05,0.000000,,2013-02-11 11:32:00,
2013-02-11 02:03:00,70.0,60.0,-100.00,NE,50,5.0,26.0,70,0.00,,,0.05,0.000000,,2013-02-11 12:03:00,
2013-02-11 02:12:00,70.0,60.0,-100.00,NE,50,5.0,26.0,70,0.00,,,0.05,0.000000,,2013-02-11 12:12:00,
2013-02-11 02:22:00,70.0,60.0,-100.00,NE,50,5.0,26.0,70,0.00,,,0.05,0.000000,,2013-02-11 12:22:00,
2013-02-11 02:31:00,70.0,60.0,-100.00,NE,50,5.0,26.0,70,0.00,,,0.05,0.000000,,2013-02-11 12:31:00,
2013-02-11 03:01:00,68.0,59.0,-100.00,East,93,7.0,21.0,74,0.00,,,-99.99,0.000000,,2013-02-11 13:01:00,
2013-02-11 03:11:00,68.0,59.0,-100.00,East,93,7.0,21.0,74,0.00,,,-99.99,0.000000,,2013-02-11 13:11:00,
2013-02-11 03:21:00,68.0,59.0,-100.00,East,93,7.0,21.0,74,0.00,,,-99.99,0.000000,,2013-02-11 13:21:00,
2013-02-11 03:32:00,68.0,59.0,-100.00,East,93,7.0,21.0,74,0.00,,,-99.99,0.000000,,2013-02-11 13:32:00,
2013-02-11 04:01:00,70.0,60.0,-100.00,NE,44,14.0,31.0,70,0.00,,,-99.99,0.000000,,2013-02-11 14:01:00,
2013-02-11 04:11:00,70.0,60.0,-100.00,NE,44,14.0,31.0,70,0.00,,,-99.99,0.000000,,2013-02-11 14:11:00,
2013-02-11 04:21:00,70.0,60.0,-100.00,NE,44,14.0,31.0,70,0.00,,,-99.99,0.000000,,2013-02-11 14:21:00,
2013-02-11 04:32:00,70.0,60.0,-100.00,NE,44,14.0,31.0,70,0.00,,,-99.99,0.000000,,2013-02-11 14:32:00,
2013-02-11 05:01:00,68.0,58.0,-100.00,NE,54,12.0,37.0,71,0.00,,,0.05,0.000000,,2013-02-11 15:01:00,
2013-02-11 05:11:00,68.0,58.0,-100.00,NE,54,12.0,37.0,71,0.00,,,0.05,0.000000,,2013-02-11 15:11:00,
2013-02-11 05:22:00,68.0,58.0,-100.00,NE,54,12.0,37.0,71,0.00,,,0.05,0.000000,,2013-02-11 15:22:00,
2013-02-11 05:31:00,68.0,58.0,-100.00,NE,54,12.0,37.0,71,0.00,,,0.05,0.000000,,2013-02-11 15:31:00,
2013-02-11 06:01:00,70.0,60.0,-100.00,NE,44,14.0,36.0,70,0.00,,,0.05,0.000000,,2013-02-11 16:01:00,
2013-02-11 06:11:00,70.0,60.0,-100.00,NE,44,14.0,36.0,70,0.00,,,0.05,0.000000,,2013-02-11 16:11:00,
2013-02-11 06:21:00,70.0,60.0,-100.00,NE,44,14.0,36.0,70,0.00,,,0.05,0.000000,,2013-02-11 16:21:00,
2013-02-11 06:31:00,70.0,60.0,-100.00,NE,44,14.0,36.0,70,0.00,,,0.05,0.000000,,2013-02-11 16:31:00,
2013-02-11 07:01:00,69.0,60.0,-100.00,ENE,63,8.0,30.0,74,0.00,,,0.05,0.000000,,2013-02-11 17:01:00,
2013-02-11 07:11:00,69.0,60.0,-100.00,ENE,63,8.0,30.0,74,0.00,,,0.05,0.000000,,2013-02-11 17:11:00,
2013-02-11 07:21:00,69.0,60.0,-100.00,ENE,63,8.0,30.0,74,0.00,,,0.05,0.000000,,2013-02-11 17:21:00,
2013-02-11 07:31:00,69.0,60.0,-100.00,ENE,63,8.0,30.0,74,0.00,,,0.05,0.000000,,2013-02-11 17:31:00,
2013-02-11 08:01:00,68.0,62.0,-100.00,ENE,71,5.0,27.0,82,0.00,,,0.05,0.000000,,2013-02-11 18:01:00,
2013-02-11 08:11:00,68.0,62.0,-100.00,ENE,71,5.0,27.0,82,0.00,,,0.05,0.000000,,2013-02-11 18:11:00,
2013-02-11 08:21:00,68.0,62.0,-100.00,ENE,71,5.0,27.0,82,0.00,,,0.05,0.000000,,2013-02-11 18:21:00,
2013-02-11 08:31:00,68.0,62.0,-100.00,ENE,71,5.0,27.0,82,0.00,,,0.05,0.000000,,2013-02-11 18:31:00,
2013-02-11 09:02:00,70.0,62.0,-100.00,NE,46,12.0,31.0,75,0.00,,,0.05,8.000000,,2013-02-11 19:02:00,
2013-02-11 09:11:00,70.0,62.0,-100.00,NE,46,12.0,31.0,75,0.00,,,0.05,8.000000,,2013-02-11 19:11:00,
2013-02-11 09:21:00,70.0,62.0,-100.00,NE,46,12.0,31.0,75,0.00,,,0.05,8.000000,,2013-02-11 19:21:00,
2013-02-11 09:31:00,70.0,62.0,-100.00,NE,46,12.0,31.0,75,0.00,,,0.05,8.000000,,2013-02-11 19:31:00,
2013-02-11 10:01:00,71.0,62.0,-100.00,ENE,64,3.0,20.0,73,0.00,,,0.05,165.000000,,2013-02-11 20:01:00,
2013-02-11 10:11:00,71.0,62.0,-100.00,ENE,64,3.0,20.0,73,0.00,,,0.05,165.000000,,2013-02-11 20:11:00,
2013-02-11 10:21:00,71.0,62.0,-100.00,ENE,64,3.0,20.0,73,0.00,,,0.05,165.000000,,2013-02-11 20:21:00,
2013-02-11 10:31:00,71.0,62.0,-100.00,ENE,64,3.0,20.0,73,0.00,,,0.05,165.000000,,2013-02-11 20:31:00,
2013-02-11 11:02:00,76.0,65.0,-100.00,SSW,202,3.0,12.0,70,0.00,,,0.05,394.000000,,2013-02-11 21:02:00,
2013-02-11 11:11:00,76.0,65.0,-100.00,SSW,202,3.0,12.0,70,0.00,,,0.05,394.000000,,2013-02-11 21:11:00,
2013-02-11 11:21:00,76.0,65.0,-100.00,SSW,202,3.0,12.0,70,0.00,,,0.05,394.000000,,2013-02-11 21:21:00,
2013-02-11 11:31:00,76.0,65.0,-100.00,SSW,202,3.0,12.0,70,0.00,,,0.05,394.000000,,2013-02-11 21:31:00,
2013-02-11 12:01:00,74.0,61.0,-100.00,SSE,165,5.0,18.0,63,0.00,,,0.05,556.000000,,2013-02-11 22:01:00,
2013-02-11 12:11:00,74.0,61.0,-100.00,SSE,165,5.0,18.0,63,0.00,,,0.05,556.000000,,2013-02-11 22:11:00,
2013-02-11 12:21:00,74.0,61.0,-100.00,SSE,165,5.0,18.0,63,0.00,,,0.05,556.000000,,2013-02-11 22:21:00,
2013-02-11 12:31:00,74.0,61.0,-100.00,SSE,165,5.0,18.0,63,0.00,,,0.05,556.000000,,2013-02-11 22:31:00,
2013-02-11 13:01:00,75.0,61.0,-100.00,SE,126,10.0,31.0,62,0.00,,,0.05,882.000000,,2013-02-11 23:01:00,
2013-02-11 13:11:00,75.0,61.0,-100.00,SE,126,10.0,31.0,62,0.00,,,0.05,882.000000,,2013-02-11 23:11:00,
2013-02-11 13:21:00,75.0,61.0,-100.00,SE,126,10.0,31.0,62,0.00,,,0.05,882.000000,,2013-02-11 23:21:00,
2013-02-11 13:31:00,75.0,61.0,-100.00,SE,126,10.0,31.0,62,0.00,,,0.05,882.000000,,2013-02-11 23:31:00,
2013-02-11 13:52:00,75.0,62.0,-100.00,NNW,336,7.0,21.0,63,0.00,,,0.02,847.000000,,2013-02-11 23:52:00,
2013-02-11 14:01:00,75.0,62.0,-100.00,NNW,336,7.0,21.0,63,0.00,,,0.02,847.000000,,2013-02-12 00:01:00,
2013-02-11 14:11:00,75.0,62.0,-100.00,NNW,336,7.0,21.0,63,0.00,,,0.02,847.000000,,2013-02-12 00:11:00,
2013-02-11 14:21:00,75.0,62.0,-100.00,NNW,336,7.0,21.0,63,0.00,,,0.02,847.000000,,2013-02-12 00:21:00,
2013-02-11 14:31:00,75.0,62.0,-100.00,NNW,336,7.0,21.0,63,0.00,,,0.02,847.000000,,2013-02-12 00:31:00,
2013-02-11 15:01:00,75.0,61.0,-100.00,NE,40,9.0,27.0,62,0.00,,,-99.99,858.000000,,2013-02-12 01:01:00,
2013-02-11 15:11:00,75.0,61.0,-100.00,NE,40,9.0,27.0,62,0.00,,,-99.99,858.000000,,2013-02-12 01:11:00,
2013-02-11 15:21:00,75.0,61.0,-100.00,NE,40,9.0,27.0,62,0.00,,,-99.99,858.000000,,2013-02-12 01:21:00,
2013-02-11 15:31:00,75.0,61.0,-100.00,NE,40,9.0,27.0,62,0.00,,,-99.99,858.000000,,2013-02-12 01:31:00,
2013-02-11 16:01:00,72.0,60.0,-100.00,NNE,20,15.0,39.0,66,0.00,,,0.02,1044.000000,,2013-02-12 02:01:00,
2013-02-11 16:11:00,72.0,60.0,-100.00,NNE,20,15.0,39.0,66,0.00,,,0.02,1044.000000,,2013-02-12 02:11:00,
2013-02-11 16:21:00,72.0,60.0,-100.00,NNE,20,15.0,39.0,66,0.00,,,0.02,1044.000000,,2013-02-12 02:21:00,
2013-02-11 16:31:00,72.0,60.0,-100.00,NNE,20,15.0,39.0,66,0.00,,,0.02,1044.000000,,2013-02-12 02:31:00,
2013-02-11 17:02:00,72.0,61.0,-100.00,NE,40,13.0,38.0,68,0.00,,,0.02,844.000000,,2013-02-12 03:02:00,
2013-02-11 17:11:00,72.0,61.0,-100.00,NE,40,13.0,38.0,68,0.00,,,0.02,844.000000,,2013-02-12 03:11:00,
2013-02-11 17:21:00,72.0,61.0,-100.00,NE,40,13.0,38.0,68,0.00,,,0.02,844.000000,,2013-02-12 03:21:00,
2013-02-11 17:31:00,72.0,61.0,-100.00,NE,40,13.0,38.0,68,0.00,,,0.02,844.000000,,2013-02-12 03:31:00,
2013-02-11 18:01:00,68.0,59.0,-100.00,NE,39,14.0,35.0,73,0.00,,,0.02,591.000000,,2013-02-12 04:01:00,
2013-02-11 18:11:00,68.0,59.0,-100.00,NE,39,14.0,35.0,73,0.00,,,0.02,591.000000,,2013-02-12 04:11:00,
2013-02-11 18:21:00,68.0,59.0,-100.00,NE,39,14.0,35.0,73,0.00,,,0.02,591.000000,,2013-02-12 04:21:00,
2013-02-11 18:31:00,68.0,59.0,-100.00,NE,39,14.0,35.0,73,0.00,,,0.02,591.000000,,2013-02-12 04:31:00,
2013-02-11 19:01:00,66.0,57.0,-100.00,NE,43,14.0,37.0,74,0.00,,,0.01,274.000000,,2013-02-12 05:01:00,
2013-02-11 19:11:00,66.0,57.0,-100.00,NE,43,14.0,37.0,74,0.00,,,0.01,274.000000,,2013-02-12 05:11:00,
2013-02-11 19:21:00,66.0,57.0,-100.00,NE,43,14.0,37.0,74,0.00,,,0.01,274.000000,,2013-02-12 05:21:00,
2013-02-11 19:31:00,66.0,57.0,-100.00,NE,43,14.0,37.0,74,0.00,,,0.01,274.000000,,2013-02-12 05:31:00,
2013-02-11 20:01:00,67.0,58.0,-100.00,NE,47,16.0,35.0,72,0.00,,,0.01,32.000000,,2013-02-12 06:01:00,
2013-02-11 20:12:00,67.0,58.0,-100.00,NE,47,16.0,35.0,72,0.00,,,0.01,32.000000,,2013-02-12 06:12:00,
2013-02-11 20:21:00,67.0,58.0,-100.00,NE,47,16.0,35.0,72,0.00,,,0.01,32.000000,,2013-02-12 06:21:00,
2013-02-11 20:31:00,67.0,58.0,-100.00,NE,47,16.0,35.0,72,0.00,,,0.01,32.000000,,2013-02-12 06:31:00,
2013-02-11 20:52:00,67.0,58.0,-100.00,NE,51,11.0,29.0,72,0.00,,,-99.99,0.000000,,2013-02-12 06:52:00,
2013-02-11 21:01:00,67.0,58.0,-100.00,NE,51,11.0,29.0,72,0.00,,,-99.99,0.000000,,2013-02-12 07:01:00,
2013-02-11 21:11:00,67.0,58.0,-100.00,NE,51,11.0,29.0,72,0.00,,,-99.99,0.000000,,2013-02-12 07:11:00,
2013-02-11 21:21:00,67.0,58.0,-100.00,NE,51,11.0,29.0,72,0.00,,,-99.99,0.000000,,2013-02-12 07:21:00,
2013-02-11 21:31:00,67.0,58.0,-100.00,NE,51,11.0,29.0,72,0.00,,,-99.99,0.000000,,2013-02-12 07:31:00,
2013-02-11 22:01:00,68.0,59.0,-100.00,NE,38,11.0,28.0,72,0.00,,,0.00,0.000000,,2013-02-12 08:01:00,
2013-02-11 22:11:00,68.0,59.0,-100.00,NE,38,11.0,28.0,72,0.00,,,0.00,0.000000,,2013-02-12 08:11:00,
2013-02-11 22:21:00,68.0,59.0,-100.00,NE,38,11.0,28.0,72,0.00,,,0.00,0.000000,,2013-02-12 08:21:00,
2013-02-11 22:31:00,68.0,59.0,-100.00,NE,38,11.0,28.0,72,0.00,,,0.00,0.000000,,2013-02-12 08:31:00,
2013-02-11 23:01:00,68.0,57.0,-100.00,NE,39,11.0,27.0,68,0.00,,,0.00,0.000000,,2013-02-12 09:01:00,
2013-02-11 23:11:00,68.0,57.0,-100.00,NE,39,11.0,27.0,68,0.00,,,0.00,0.000000,,2013-02-12 09:11:00,
2013-02-11 23:21:00,68.0,57.0,-100.00,NE,39,11.0,27.0,68,0.00,,,0.00,0.000000,,2013-02-12 09:21:00,
2013-02-11 23:31:00,68.0,57.0,-100.00,NE,39,11.0,27.0,68,0.00,,,0.00,0.000000,,2013-02-12 09:31:00,